OPS 4682 DEB, 29059

Orbit data source: Space-Track

OPS 4682 DEB, 29059 is space debris in LEO originally from a launch on Sat, 03 Apr 1965 UTC launched from the Air Force Western Test Range (AFWTR). Debris objects in space refer to the collection of defunct objects orbiting the Earth. Examples of debris include non-operational satellites, rocket bodies, and fragments generated from explosions, collisions, or faulty payload assembly.

Loading next visibility...
Identifier
29059, 1965-027BJ
Orbit
LEO
Country
Flag of USUS
Related business
Manufacturer
Unknown
Mission
Spacecraft
Bus & Motor
Unknown
Mass
Unknown
Launch date (UTC)
1965-04-03 (61 years ago)
Launch vehicle
Unknown
Launch site
Air Force Western Test Range (AFWTR)
Object type
Payload
Rocket body
Debris
Shape & HBR
Unknown shape, 0.1 m
Radar Cross Section
Medium (>0.1 m² and <1 m²)

Expand to show TLE details & history
Last TLE update: 2 days ago

TLE from 2 days ago
0 OPS 4682 DEB
1 29059U 65027BJ  26173.50414101 -.00000017  00000-0 -89043-4 0  9998
2 29059  90.2374   6.4122 0029329 210.9735 176.3587 12.94341666156303
Epoch: 2026-06-22T12:05Z
TLE epoch observation values (Epoch: 2026-06-22T12:05:57.783Z)
Latitude
27.38843°
Longitude
-85.89006°
Altitude
1,310.116 km
Speed
7.193 km/s
True Right ascension
00h 25m 09s
True Declination
27° 15' 30"
Sunlit
Object was in daylight at epoch
Visualization orbit readout
Latitude
Unknown
Longitude
Unknown
Altitude
Unknown
Speed
Unknown
Apparent Right ascension
Unknown
Apparent Declination
Unknown
Sunlit
N/A
Visualization observer readout
Local Sidereal Time
21:05:19
Azimuth
Unknown
Elevation
Unknown
Doppler factor
Unknown
Orbital elements
Apogee altitude
1,303.937 km
Perigee altitude
1,259.008 km
Semi-major axis
7,659.609 km
Eccentricity
0.00293
Inclination
90.2374°
RAAN
6.4122°
Arg. of periapsis
210.9735°
True anomaly
176.37997°
Mean anomaly
176.3587°
Eccentric anomaly
176.36934°
Mean motion
3.23767 °/min
Orbital period
111.19 mins
BSTAR
-0.000089043
Loading maneuver chart data...
Computing Atmospheric mass density...
Loading historical data...
Loading historical data...
Loading historical data...
Loading historical data...
Loading historical data...
Loading historical data...
Loading historical data...

Documentation

Showing up to 5 results
|